Location: East Arcadia
(34.1056°N, 118.0176°W)
Time: 02:36:33
(UTC+00:00)

Cosmos 1269 Rocket - Pass Details

Date: 01 April 2023
Orbit: 772 x 777 km, 74.1° (Epoch: 08 June)

Event Time Altitude Azimuth Distance (km) Brightness Sun altitude
Rises 13:05:46 0° 198° (SSW) 3,242 7.0 -7.7°
Reaches altitude 10° 13:08:08 10° 199° (SSW) 2,318 6.2 -7.3°
Maximum altitude 13:13:25 82° 287° (WNW) 789 4.0 -6.2°
Drops below altitude 10° 13:18:43 10° 15° (NNE) 2,330 6.9 -5.1°
Sets 13:21:07 0° 16° (NNE) 3,260 7.6 -4.6°
